COSMOS 1275 DEB, 42098

Orbit data source: Space-Track

COSMOS 1275 DEB, 42098 is space debris in LEO originally from a launch on Thu, 04 Jun 1981 UTC launched from the Plesetsk Missile And Space Complex (PKMTR). Debris objects in space refer to the collection of defunct objects orbiting the Earth. Examples of debris include non-operational satellites, rocket bodies, and fragments generated from explosions, collisions, or faulty payload assembly.

Loading next visibility...
Identifier
42098, 1981-053PJ
Orbit
LEO
Country
Flag of CISCIS
Related business
Manufacturer
Unknown
Mission
Spacecraft
Bus & Motor
Unknown
Mass
Unknown
Launch date (UTC)
1981-06-04 (45 years ago)
Launch vehicle
Unknown
Launch site
Plesetsk Missile And Space Complex (PKMTR)
Object type
Payload
Rocket body
Debris
Shape & HBR
Unknown shape, 0.1 m
Radar Cross Section
Small (<0.1 m²)

Expand to show TLE details & history
Last TLE update: 1 week ago

TLE from 1 week ago
0 COSMOS 1275 DEB
1 42098U 81053PJ  26061.21974086  .00000879  00000-0  94775-3 0  9991
2 42098  83.1599 345.4641 0135179 245.7075 112.9910 13.68529112610898
Epoch: 2026-03-02T05:16Z
TLE epoch observation values (Epoch: 2026-03-02T05:16:25.610Z)
Latitude
-0.00007°
Longitude
106.3411°
Altitude
1,047.876 km
Speed
7.308 km/s
True Right ascension
23h 01m 51s
True Declination
0° 00' 00"
Sunlit
Object was in daylight at epoch
Visualization orbit readout
Latitude
Unknown
Longitude
Unknown
Altitude
Unknown
Speed
Unknown
Apparent Right ascension
Unknown
Apparent Declination
Unknown
Sunlit
N/A
Visualization observer readout
Local Sidereal Time
19:37:51
Azimuth
Unknown
Elevation
Unknown
Doppler factor
Unknown
Orbital elements
Apogee altitude
1,101.769 km
Perigee altitude
902.241 km
Semi-major axis
7,380.142 km
Eccentricity
0.01352
Inclination
83.1599°
RAAN
345.4641°
Arg. of periapsis
245.7075°
True anomaly
114.4075°
Mean anomaly
112.991°
Eccentric anomaly
113.7002°
Mean motion
3.42331 °/min
Orbital period
105.16 mins
BSTAR
0.00094775
Loading maneuver chart data...
Computing Atmospheric mass density...
Loading historical data...
Loading historical data...
Loading historical data...
Loading historical data...
Loading historical data...
Loading historical data...
Loading historical data...

Documentation

Showing up to 5 results
|